Tracking 33446 objects as of 10-Mar-2026
HD Live streaming from Space Station
objects crossing your sky now

OBJECT A

Track OBJECT A now!
10-day predictions


NORAD ID: 66175
Int'l Code: 2025-242A
Perigee: 495.2 km
Apogee: 496.5 km
Inclination: 97.4 °
Period: 94.4 minutes
Semi major axis: 6866 km
RCS: Unknown
Launch date: October 26, 2025
Source: People's Republic of China (PRC)
Launch site: Xichang Space Center, China (XSC)
Your satellite tracking list
Your tracking list is empty




NASA's NSSDC Master Catalog

Two Line Element Set (TLE):
1 66175U 25242A   26069.21043734  .00009574  00000-0  37842-3 0  9999
2 66175  97.4192 145.6241 0000965 333.9453  26.1736 15.25698783 20609
Source of the keplerian elements: AFSPC